Location: Izdebno
(52.6670°N, 16.2170°E)
Time: 06:04:40
(UTC+02:00)

Vanguard 1 - Pass Details

Date: 01 March 2024
Orbit: 653 x 3825 km, 34.2° (Epoch: 22 April)

Event Time Altitude Azimuth Distance (km) Brightness Sun altitude
Rises 00:05:56 0° 271° (W) 6,671 14.3 -44.8°
Reaches altitude 10° 00:10:52 10° 261° (W) 6,051 14.0 -44.8°
Enters shadow 00:16:07 20° 248° (WSW) 5,587 13.6 -44.8°
